BAW126P LGAV-EGGW

Flight info

Callsign BAW126P
Flight time 3h 48m
Altitude 38000
Route KOR UL613 XANIS DCT VJOSA DCT PAPIZ DCT CRAYE DCT GISAM DCT UMSON DCT LOS DCT RASUG DCT SOTOV DCT XEBIX DCT USUDO DCT LIRSU DCT KOZUF DCT IMPOH DCT SASKI L608 SUMUM Y6 TOSVA
Aircraft A20N/M-SDE2E3FGHIRWXY/LB1

Departure

Time 2026-05-06 20:01
Airport Athens Eleftherios Venizelos International Airport (LGAV)

Arrival

Time 2026-05-06 23:50
Airport London Luton Airport (EGGW)
Time Latitude Longitude Altitude Speed Heading
2026-05-06 19:14 37.93104 23.94180 286 ft 0 kts 37°
2026-05-06 19:51 37.93105 23.94180 286 ft 0 kts 37°
2026-05-06 19:52 37.93098 23.94174 286 ft 2 kts 38°
2026-05-06 19:52 37.93085 23.94161 286 ft 2 kts 41°
2026-05-06 19:53 37.93075 23.94145 286 ft 2 kts 109°
2026-05-06 19:53 37.93078 23.94137 286 ft 0 kts 126°
2026-05-06 19:56 37.93073 23.94144 286 ft 1 kts 137°
2026-05-06 19:56 37.93062 23.94151 286 ft 3 kts 148°
2026-05-06 19:56 37.93041 23.94167 287 ft 4 kts 154°
2026-05-06 19:56 37.93008 23.94188 287 ft 6 kts 148°
2026-05-06 19:57 37.92976 23.94228 288 ft 7 kts 134°
2026-05-06 19:57 37.92934 23.94275 288 ft 8 kts 139°
2026-05-06 19:57 37.92892 23.94337 289 ft 10 kts 135°
2026-05-06 19:57 37.92836 23.94351 290 ft 8 kts 196°
2026-05-06 19:58 37.92785 23.94314 292 ft 9 kts 215°
2026-05-06 19:58 37.92730 23.94261 293 ft 11 kts 217°
2026-05-06 19:58 37.92666 23.94200 291 ft 12 kts 216°
2026-05-06 19:58 37.92594 23.94133 292 ft 14 kts 217°
2026-05-06 19:59 37.92509 23.94080 293 ft 13 kts 178°
2026-05-06 19:59 37.92441 23.94150 293 ft 13 kts 128°
2026-05-06 19:59 37.92414 23.94263 292 ft 15 kts 91°
2026-05-06 19:59 37.92430 23.94395 294 ft 15 kts 58°
2026-05-06 20:00 37.92497 23.94467 294 ft 0 kts 37°
2026-05-06 20:00 37.92516 23.94485 293 ft 20 kts 37°
2026-05-06 20:00 37.92843 23.94793 288 ft 94 kts 37°
2026-05-06 20:01 37.93530 23.95444 281 ft 150 kts 36°
2026-05-06 20:01 37.94430 23.96316 569 ft 169 kts 37°
2026-05-06 20:01 37.95327 23.97195 1310 ft 161 kts 37°
2026-05-06 20:01 37.96337 23.98148 1382 ft 203 kts 36°
2026-05-06 20:02 37.97534 23.99270 1580 ft 223 kts 37°
2026-05-06 20:02 37.98862 24.00531 1709 ft 243 kts 37°
2026-05-06 20:02 38.00182 24.01804 2449 ft 240 kts 37°
2026-05-06 20:02 38.01553 24.03130 2767 ft 255 kts 37°
2026-05-06 20:03 38.02973 24.04501 3608 ft 255 kts 37°
2026-05-06 20:03 38.04414 24.05889 3915 ft 260 kts 37°
2026-05-06 20:03 38.05841 24.07264 4020 ft 257 kts 37°
2026-05-06 20:03 38.07271 24.08640 4135 ft 258 kts 37°
2026-05-06 20:04 38.08650 24.10070 4226 ft 256 kts 49°
2026-05-06 20:04 38.09479 24.12057 4349 ft 259 kts 78°
2026-05-06 20:04 38.09452 24.14302 4466 ft 256 kts 108°
2026-05-06 20:04 38.08564 24.16242 4579 ft 256 kts 137°
2026-05-06 20:05 38.07049 24.17373 4700 ft 255 kts 167°
2026-05-06 20:05 38.05296 24.17409 4816 ft 255 kts 196°
2026-05-06 20:05 38.03763 24.16354 4928 ft 254 kts 225°
2026-05-06 20:05 38.02777 24.14509 5047 ft 254 kts 244°
2026-05-06 20:06 38.01992 24.12502 5079 ft 255 kts 244°
2026-05-06 20:06 38.01207 24.10526 5082 ft 253 kts 244°
2026-05-06 20:06 38.00666 24.09184 5079 ft 253 kts 243°
2026-05-06 20:06 37.99858 24.07195 5088 ft 255 kts 243°
2026-05-06 20:07 37.99048 24.05213 5084 ft 251 kts 243°
2026-05-06 20:07 37.97975 24.02595 5088 ft 254 kts 243°
2026-05-06 20:07 37.97424 24.01251 5210 ft 256 kts 243°
2026-05-06 20:07 37.96606 23.99258 5331 ft 255 kts 243°
2026-05-06 20:08 37.95517 23.96606 5955 ft 256 kts 243°
2026-05-06 20:08 37.94962 23.95255 6546 ft 256 kts 243°
2026-05-06 20:08 37.94134 23.93242 7342 ft 260 kts 243°
2026-05-06 20:08 37.93296 23.91203 8145 ft 262 kts 243°
2026-05-06 20:09 37.92447 23.89139 8970 ft 266 kts 243°
2026-05-06 20:09 37.91588 23.87051 9784 ft 269 kts 244°
2026-05-06 20:09 37.90720 23.84943 10518 ft 272 kts 244°
2026-05-06 20:09 37.89841 23.82809 11242 ft 275 kts 244°
2026-05-06 20:10 37.89138 23.80555 11945 ft 276 kts 259°
2026-05-06 20:10 37.88960 23.78140 12666 ft 277 kts 275°
2026-05-06 20:10 37.89104 23.75658 13124 ft 293 kts 275°
2026-05-06 20:10 37.89254 23.72989 13330 ft 314 kts 275°
2026-05-06 20:11 37.89405 23.70143 13533 ft 335 kts 275°
2026-05-06 20:11 37.89544 23.67430 13805 ft 349 kts 274°
2026-05-06 20:11 37.89698 23.64355 14440 ft 352 kts 275°
2026-05-06 20:11 37.89850 23.61298 14549 ft 351 kts 275°
2026-05-06 20:12 37.90003 23.58218 14649 ft 351 kts 275°
2026-05-06 20:12 37.90156 23.55130 14739 ft 352 kts 275°
2026-05-06 20:12 37.90309 23.52032 14850 ft 352 kts 275°
2026-05-06 20:12 37.90461 23.48940 14951 ft 353 kts 275°
2026-05-06 20:13 37.90613 23.45840 15052 ft 353 kts 275°
2026-05-06 20:13 37.90765 23.42738 15077 ft 353 kts 275°
2026-05-06 20:13 37.90915 23.39635 15080 ft 353 kts 275°
2026-05-06 20:13 37.91062 23.36554 15080 ft 353 kts 275°
2026-05-06 20:14 37.91209 23.33480 15084 ft 353 kts 275°
2026-05-06 20:14 37.91356 23.30381 15083 ft 352 kts 275°
2026-05-06 20:14 37.91502 23.27291 15083 ft 352 kts 275°
2026-05-06 20:14 37.91648 23.24189 15083 ft 353 kts 275°
2026-05-06 20:15 37.91793 23.21089 15083 ft 352 kts 275°
2026-05-06 20:15 37.91937 23.17988 15083 ft 352 kts 275°
2026-05-06 20:15 37.92081 23.14893 15083 ft 352 kts 275°
2026-05-06 20:15 37.92223 23.11794 15083 ft 352 kts 275°
2026-05-06 20:16 37.92365 23.08694 15087 ft 354 kts 274°
2026-05-06 20:16 37.92507 23.05583 15086 ft 354 kts 274°
2026-05-06 20:16 37.92647 23.02475 15084 ft 354 kts 274°
2026-05-06 20:16 37.92787 22.99349 15166 ft 358 kts 274°
2026-05-06 20:17 37.93027 22.96212 15823 ft 357 kts 283°
2026-05-06 20:17 37.93887 22.93288 16515 ft 357 kts 300°
2026-05-06 20:17 37.95413 22.90803 17129 ft 360 kts 316°
2026-05-06 20:17 37.97269 22.88664 17775 ft 362 kts 317°
2026-05-06 20:18 37.99146 22.86502 18397 ft 365 kts 316°
2026-05-06 20:18 38.01030 22.84323 18934 ft 368 kts 316°
2026-05-06 20:18 38.02924 22.82124 19474 ft 370 kts 316°
2026-05-06 20:18 38.04828 22.79908 20008 ft 373 kts 316°
2026-05-06 20:19 38.06748 22.77671 20523 ft 376 kts 316°
2026-05-06 20:19 38.08695 22.75401 20952 ft 382 kts 316°
2026-05-06 20:19 38.10653 22.73117 21500 ft 383 kts 316°
2026-05-06 20:19 38.12623 22.70818 22012 ft 386 kts 316°
2026-05-06 20:20 38.14612 22.68503 22520 ft 389 kts 316°
2026-05-06 20:20 38.16616 22.66177 23022 ft 392 kts 317°
2026-05-06 20:20 38.18634 22.63832 23518 ft 395 kts 317°
2026-05-06 20:20 38.20666 22.61470 23956 ft 397 kts 317°
2026-05-06 20:21 38.22707 22.59093 24404 ft 398 kts 317°
2026-05-06 20:21 38.24753 22.56709 24878 ft 399 kts 316°
2026-05-06 20:21 38.26800 22.54321 25319 ft 401 kts 316°
2026-05-06 20:21 38.28861 22.51914 25710 ft 403 kts 316°
2026-05-06 20:22 38.30929 22.49496 26113 ft 404 kts 316°
2026-05-06 20:22 38.33003 22.47070 26512 ft 406 kts 317°
2026-05-06 20:22 38.35091 22.44626 26865 ft 409 kts 317°
2026-05-06 20:22 38.37194 22.42163 27177 ft 412 kts 317°
2026-05-06 20:23 38.39303 22.39690 27575 ft 413 kts 317°
2026-05-06 20:23 38.41423 22.37202 27937 ft 415 kts 317°
2026-05-06 20:23 38.43547 22.34709 28274 ft 416 kts 317°
2026-05-06 20:23 38.45679 22.32201 28615 ft 418 kts 317°
2026-05-06 20:24 38.47822 22.29681 28924 ft 420 kts 317°
2026-05-06 20:24 38.49943 22.27183 29226 ft 421 kts 317°
2026-05-06 20:24 38.52130 22.24605 29539 ft 423 kts 317°
2026-05-06 20:24 38.54295 22.22052 29834 ft 425 kts 317°
2026-05-06 20:25 38.56436 22.19524 30163 ft 426 kts 317°
2026-05-06 20:25 38.58640 22.16897 30415 ft 428 kts 316°
2026-05-06 20:25 38.60779 22.14255 30668 ft 429 kts 316°
2026-05-06 20:25 38.62920 22.11578 30931 ft 431 kts 316°
2026-05-06 20:26 38.64174 22.10010 31036 ft 433 kts 316°
2026-05-06 20:26 38.64543 22.09549 31086 ft 433 kts 316°
2026-05-06 20:27 38.65420 22.08455 31188 ft 433 kts 316°
2026-05-06 20:28 38.65515 22.08336 31197 ft 433 kts 316°
2026-05-06 20:28 38.65649 22.08169 31230 ft 433 kts 316°
2026-05-06 20:29 38.67064 22.06406 31461 ft 432 kts 316°
2026-05-06 20:29 38.68066 22.05160 31639 ft 431 kts 316°
2026-05-06 20:29 38.70213 22.02491 32029 ft 430 kts 316°
2026-05-06 20:30 38.72354 21.99829 32407 ft 428 kts 316°
2026-05-06 20:30 38.76604 21.94541 33111 ft 424 kts 316°
2026-05-06 20:30 38.78713 21.91914 33447 ft 422 kts 316°
2026-05-06 20:31 38.80815 21.89291 33805 ft 420 kts 316°
2026-05-06 20:31 38.82897 21.86691 34232 ft 416 kts 316°
2026-05-06 20:31 38.84971 21.84101 34450 ft 416 kts 316°
2026-05-06 20:31 38.87041 21.81513 34659 ft 416 kts 316°
2026-05-06 20:32 38.89112 21.78921 34871 ft 416 kts 316°
2026-05-06 20:32 38.91179 21.76333 35110 ft 414 kts 316°
2026-05-06 20:32 38.93241 21.73749 35296 ft 414 kts 316°
2026-05-06 20:32 38.95300 21.71167 35484 ft 414 kts 316°
2026-05-06 20:33 38.97360 21.68581 35679 ft 414 kts 316°
2026-05-06 20:33 38.99444 21.65962 35858 ft 413 kts 316°
2026-05-06 20:33 39.01498 21.63380 36029 ft 413 kts 316°
2026-05-06 20:33 39.03548 21.60799 36201 ft 412 kts 316°
2026-05-06 20:34 39.05601 21.58213 36378 ft 412 kts 315°
2026-05-06 20:34 39.07641 21.55641 36543 ft 411 kts 315°
2026-05-06 20:34 39.09689 21.53055 36720 ft 411 kts 315°
2026-05-06 20:34 39.11725 21.50484 36911 ft 410 kts 315°
2026-05-06 20:35 39.13759 21.47914 37050 ft 410 kts 315°
2026-05-06 20:35 39.15791 21.45343 37184 ft 410 kts 315°
2026-05-06 20:35 39.17826 21.42765 37317 ft 410 kts 315°
2026-05-06 20:35 39.19845 21.40207 37468 ft 409 kts 315°
2026-05-06 20:36 39.21658 21.37906 37571 ft 409 kts 315°
2026-05-06 20:36 39.23684 21.35334 37690 ft 409 kts 315°
2026-05-06 20:36 39.25707 21.32763 37809 ft 409 kts 315°
2026-05-06 20:36 39.27732 21.30188 37915 ft 408 kts 315°
2026-05-06 20:37 39.29752 21.27616 38008 ft 408 kts 315°
2026-05-06 20:37 39.33793 21.22464 38120 ft 408 kts 315°
2026-05-06 20:38 39.37826 21.17314 38131 ft 406 kts 315°
2026-05-06 20:38 39.41828 21.12194 38124 ft 406 kts 315°
2026-05-06 20:39 39.45862 21.07027 38125 ft 408 kts 315°
2026-05-06 20:39 39.49890 21.01857 38140 ft 408 kts 315°
2026-05-06 20:40 39.53917 20.96681 38150 ft 408 kts 315°
2026-05-06 20:40 39.57942 20.91497 38158 ft 408 kts 315°
2026-05-06 20:41 39.61959 20.86315 38161 ft 408 kts 315°
2026-05-06 20:41 39.65992 20.81104 38162 ft 409 kts 314°
2026-05-06 20:42 39.70006 20.75909 38156 ft 407 kts 314°
2026-05-06 20:42 39.74014 20.70710 38148 ft 407 kts 314°
2026-05-06 20:43 39.78019 20.65505 38159 ft 407 kts 314°
2026-05-06 20:43 39.82004 20.60318 38120 ft 407 kts 314°
2026-05-06 20:44 39.85998 20.55112 38118 ft 407 kts 314°
2026-05-06 20:44 39.89993 20.49895 38116 ft 406 kts 314°
2026-05-06 20:45 39.93980 20.44680 38118 ft 406 kts 314°
2026-05-06 20:45 39.97950 20.39443 38113 ft 406 kts 311°
2026-05-06 20:46 40.01604 20.33836 38113 ft 405 kts 309°
2026-05-06 20:46 40.05233 20.28233 38108 ft 405 kts 309°
2026-05-06 20:47 40.08865 20.22610 38112 ft 406 kts 309°
2026-05-06 20:47 40.12502 20.16955 38106 ft 406 kts 309°
2026-05-06 20:48 40.16131 20.11299 38108 ft 406 kts 309°
2026-05-06 20:48 40.19760 20.05630 38105 ft 406 kts 308°
2026-05-06 20:49 40.23376 19.99973 38106 ft 406 kts 308°
2026-05-06 20:49 40.27003 19.94287 38110 ft 406 kts 308°
2026-05-06 20:50 40.30009 19.89568 38097 ft 406 kts 308°
2026-05-06 20:50 40.33610 19.83901 38098 ft 406 kts 308°
2026-05-06 20:51 40.37224 19.78211 38089 ft 404 kts 308°
2026-05-06 20:51 40.40807 19.72559 38090 ft 403 kts 308°
2026-05-06 20:52 40.44386 19.66896 38093 ft 404 kts 308°
2026-05-06 20:52 40.47985 19.61193 38079 ft 404 kts 308°
2026-05-06 20:53 40.51557 19.55524 38084 ft 402 kts 308°
2026-05-06 20:53 40.55119 19.49859 38077 ft 402 kts 307°
2026-05-06 20:54 40.58684 19.44181 38077 ft 404 kts 307°
2026-05-06 20:54 40.62275 19.38449 38071 ft 405 kts 307°
2026-05-06 20:55 40.65854 19.32725 38068 ft 405 kts 307°
2026-05-06 20:55 40.69418 19.27017 38061 ft 404 kts 307°
2026-05-06 20:56 40.72980 19.21299 38054 ft 403 kts 307°
2026-05-06 20:56 40.76532 19.15588 38047 ft 403 kts 307°
2026-05-06 20:57 40.80086 19.09865 38057 ft 403 kts 306°
2026-05-06 20:57 40.83627 19.04150 38046 ft 403 kts 306°
2026-05-06 20:58 40.87169 18.98420 38048 ft 402 kts 306°
2026-05-06 20:58 40.90887 18.92878 38047 ft 405 kts 312°
2026-05-06 20:59 40.94865 18.87614 38044 ft 405 kts 311°
2026-05-06 20:59 40.98838 18.82321 38044 ft 405 kts 311°
2026-05-06 21:00 41.02815 18.77014 38059 ft 406 kts 311°
2026-05-06 21:00 41.06807 18.71682 38067 ft 408 kts 310°
2026-05-06 21:01 41.10784 18.66359 38064 ft 405 kts 310°
2026-05-06 21:01 41.14753 18.61034 38071 ft 407 kts 310°
2026-05-06 21:02 41.18733 18.55684 38065 ft 406 kts 310°
2026-05-06 21:02 41.22706 18.50334 38047 ft 407 kts 310°
2026-05-06 21:03 41.26675 18.44981 38037 ft 407 kts 310°
2026-05-06 21:03 41.30650 18.39608 38031 ft 408 kts 310°
2026-05-06 21:04 41.34613 18.34244 38036 ft 409 kts 310°
2026-05-06 21:04 41.38593 18.28844 38038 ft 409 kts 310°
2026-05-06 21:05 41.42583 18.23421 38050 ft 410 kts 310°
2026-05-06 21:05 41.46577 18.17982 38050 ft 411 kts 310°
2026-05-06 21:06 41.50749 18.12739 38056 ft 415 kts 317°
2026-05-06 21:06 41.55477 18.08352 38051 ft 419 kts 322°
2026-05-06 21:07 41.60327 18.04044 38048 ft 416 kts 321°
2026-05-06 21:07 41.65137 17.99759 38044 ft 416 kts 321°
2026-05-06 21:08 41.69963 17.95460 38038 ft 416 kts 321°
2026-05-06 21:08 41.74780 17.91165 38040 ft 416 kts 321°
2026-05-06 21:09 41.79601 17.86860 38029 ft 416 kts 321°
2026-05-06 21:09 41.84423 17.82545 38042 ft 417 kts 321°
2026-05-06 21:10 41.89246 17.78221 38043 ft 417 kts 321°
2026-05-06 21:10 41.93829 17.73515 38036 ft 412 kts 313°
2026-05-06 21:11 41.98094 17.68357 38024 ft 413 kts 313°
2026-05-06 21:11 42.02384 17.63213 38029 ft 413 kts 313°
2026-05-06 21:12 42.06670 17.58052 38046 ft 414 kts 313°
2026-05-06 21:12 42.10958 17.52871 38036 ft 414 kts 313°
2026-05-06 21:13 42.15246 17.47677 38037 ft 415 kts 313°
2026-05-06 21:13 42.19534 17.42474 38029 ft 415 kts 313°
2026-05-06 21:14 42.23794 17.37296 38020 ft 415 kts 313°
2026-05-06 21:14 42.28087 17.32068 38018 ft 416 kts 313°
2026-05-06 21:15 42.32378 17.26833 38025 ft 416 kts 312°
2026-05-06 21:15 42.36663 17.21594 38025 ft 416 kts 312°
2026-05-06 21:16 42.40960 17.16330 38023 ft 416 kts 312°
2026-05-06 21:16 42.45249 17.11066 38022 ft 416 kts 312°
2026-05-06 21:17 42.49532 17.05798 38021 ft 416 kts 312°
2026-05-06 21:17 42.53833 17.00498 38012 ft 419 kts 312°
2026-05-06 21:18 42.58132 16.95193 38019 ft 418 kts 312°
2026-05-06 21:18 42.62429 16.89879 38010 ft 418 kts 312°
2026-05-06 21:19 42.66725 16.84555 38016 ft 418 kts 312°
2026-05-06 21:19 42.71018 16.79224 38016 ft 418 kts 312°
2026-05-06 21:20 42.75309 16.73885 38009 ft 418 kts 312°
2026-05-06 21:20 42.79603 16.68533 38000 ft 419 kts 312°
2026-05-06 21:21 42.83905 16.63160 37995 ft 420 kts 311°
2026-05-06 21:21 42.88200 16.57783 38000 ft 420 kts 311°
2026-05-06 21:22 42.92507 16.52382 38013 ft 420 kts 311°
2026-05-06 21:22 42.96806 16.46981 38010 ft 420 kts 311°
2026-05-06 21:23 43.01110 16.41562 38001 ft 421 kts 311°
2026-05-06 21:23 43.05415 16.36132 37995 ft 422 kts 311°
2026-05-06 21:24 43.09727 16.30681 37978 ft 423 kts 311°
2026-05-06 21:24 43.14040 16.25218 37990 ft 423 kts 311°
2026-05-06 21:25 43.18332 16.19770 37988 ft 424 kts 311°
2026-05-06 21:25 43.22657 16.14270 37995 ft 424 kts 311°
2026-05-06 21:26 43.27013 16.08720 38006 ft 425 kts 311°
2026-05-06 21:26 43.31347 16.03184 38000 ft 426 kts 311°
2026-05-06 21:27 43.35653 15.97674 37989 ft 427 kts 311°
2026-05-06 21:27 43.40002 15.92098 37981 ft 428 kts 311°
2026-05-06 21:28 43.44352 15.86509 37984 ft 428 kts 311°
2026-05-06 21:28 43.48702 15.80910 37987 ft 428 kts 311°
2026-05-06 21:29 43.53061 15.75300 37987 ft 429 kts 311°
2026-05-06 21:29 43.57477 15.69749 37975 ft 429 kts 312°
2026-05-06 21:30 43.61888 15.64225 37993 ft 428 kts 312°
2026-05-06 21:30 43.66311 15.58650 37980 ft 432 kts 311°
2026-05-06 21:31 43.70744 15.53051 37980 ft 432 kts 311°
2026-05-06 21:31 43.75176 15.47439 37976 ft 432 kts 311°
2026-05-06 21:32 43.79600 15.41825 37979 ft 432 kts 311°
2026-05-06 21:32 43.86234 15.33384 37985 ft 432 kts 311°
2026-05-06 21:33 43.90655 15.27744 37996 ft 432 kts 311°
2026-05-06 21:33 43.95080 15.22087 37974 ft 433 kts 311°
2026-05-06 21:34 43.99495 15.16430 37978 ft 433 kts 311°
2026-05-06 21:34 44.03919 15.10751 37983 ft 433 kts 311°
2026-05-06 21:35 44.08323 15.05085 37987 ft 434 kts 311°
2026-05-06 21:35 44.12032 15.00303 37997 ft 434 kts 311°
2026-05-06 21:36 44.16460 14.94585 37988 ft 435 kts 311°
2026-05-06 21:36 44.20888 14.88853 37993 ft 434 kts 311°
2026-05-06 21:37 44.25309 14.83118 37989 ft 434 kts 311°
2026-05-06 21:37 44.29730 14.77371 37992 ft 434 kts 311°
2026-05-06 21:38 44.34142 14.71623 37990 ft 433 kts 311°
2026-05-06 21:38 44.38540 14.65881 37985 ft 433 kts 311°
2026-05-06 21:39 44.42942 14.60121 37983 ft 433 kts 311°
2026-05-06 21:39 44.47331 14.54365 37978 ft 433 kts 311°
2026-05-06 21:40 44.51692 14.48637 37978 ft 433 kts 311°
2026-05-06 21:40 44.56089 14.42872 37984 ft 433 kts 311°
2026-05-06 21:41 44.60504 14.37107 37969 ft 434 kts 311°
2026-05-06 21:41 44.64920 14.31329 37967 ft 433 kts 311°
2026-05-06 21:42 44.69323 14.25548 37965 ft 434 kts 311°
2026-05-06 21:42 44.73728 14.19750 37961 ft 434 kts 311°
2026-05-06 21:43 44.78136 14.13937 37962 ft 435 kts 311°
2026-05-06 21:43 44.82543 14.08113 37964 ft 435 kts 311°
2026-05-06 21:44 44.86949 14.02276 37959 ft 435 kts 311°
2026-05-06 21:44 44.91355 13.96425 37964 ft 435 kts 311°
2026-05-06 21:45 44.95769 13.90551 37957 ft 436 kts 311°
2026-05-06 21:45 45.00167 13.84688 37964 ft 437 kts 310°
2026-05-06 21:46 45.04591 13.78776 37969 ft 438 kts 310°
2026-05-06 21:46 45.09017 13.72848 37963 ft 438 kts 310°
2026-05-06 21:47 45.13445 13.66904 37967 ft 439 kts 310°
2026-05-06 21:47 45.17871 13.60947 37953 ft 439 kts 310°
2026-05-06 21:48 45.22302 13.54974 37946 ft 440 kts 310°
2026-05-06 21:48 45.26719 13.49007 37940 ft 438 kts 310°
2026-05-06 21:49 45.31127 13.43033 37940 ft 438 kts 310°
2026-05-06 21:49 45.35535 13.37048 37934 ft 438 kts 310°
2026-05-06 21:50 45.39941 13.31053 37936 ft 440 kts 310°
2026-05-06 21:50 45.44384 13.24987 37939 ft 446 kts 310°
2026-05-06 21:51 45.48856 13.18879 37933 ft 444 kts 310°
2026-05-06 21:51 45.53303 13.12788 37923 ft 444 kts 310°
2026-05-06 21:52 45.57754 13.06674 37921 ft 444 kts 310°
2026-05-06 21:52 45.62196 13.00559 37921 ft 444 kts 310°
2026-05-06 21:53 45.66636 12.94435 37916 ft 443 kts 310°
2026-05-06 21:53 45.71096 12.88370 37915 ft 443 kts 312°
2026-05-06 21:54 45.75650 12.82424 37912 ft 443 kts 312°
2026-05-06 21:54 45.80190 12.76470 37906 ft 442 kts 312°
2026-05-06 21:55 45.84712 12.70497 37917 ft 442 kts 311°
2026-05-06 21:55 45.89211 12.64535 37917 ft 443 kts 311°
2026-05-06 21:56 45.93736 12.58522 37921 ft 443 kts 311°
2026-05-06 21:56 45.98257 12.52503 37924 ft 443 kts 311°
2026-05-06 21:57 46.02783 12.46461 37930 ft 444 kts 311°
2026-05-06 21:57 46.07300 12.40418 37925 ft 444 kts 311°
2026-05-06 21:58 46.11800 12.34384 37921 ft 445 kts 311°
2026-05-06 21:58 46.16329 12.28297 37929 ft 446 kts 311°
2026-05-06 21:59 46.20866 12.22185 37935 ft 446 kts 311°
2026-05-06 21:59 46.25407 12.16051 37956 ft 448 kts 311°
2026-05-06 22:00 46.29953 12.09899 37944 ft 446 kts 311°
2026-05-06 22:00 46.34486 12.03745 37946 ft 448 kts 311°
2026-05-06 22:01 46.39025 11.97570 37943 ft 448 kts 311°
2026-05-06 22:01 46.43560 11.91388 37941 ft 448 kts 311°
2026-05-06 22:02 46.48091 11.85196 37943 ft 448 kts 311°
2026-05-06 22:02 46.52626 11.78983 37942 ft 448 kts 311°
2026-05-06 22:03 46.57160 11.72757 37939 ft 449 kts 311°
2026-05-06 22:03 46.61690 11.66520 37934 ft 447 kts 311°
2026-05-06 22:04 46.66195 11.60303 37929 ft 448 kts 311°
2026-05-06 22:04 46.70716 11.54048 37932 ft 448 kts 311°
2026-05-06 22:05 46.75224 11.47799 37925 ft 448 kts 311°
2026-05-06 22:05 46.79749 11.41504 37930 ft 452 kts 311°
2026-05-06 22:06 46.84308 11.35149 37919 ft 455 kts 312°
2026-05-06 22:06 46.88880 11.28765 37925 ft 454 kts 312°
2026-05-06 22:07 46.93445 11.22376 37920 ft 454 kts 311°
2026-05-06 22:07 46.97763 11.15653 37935 ft 453 kts 308°
2026-05-06 22:08 47.02040 11.08906 37928 ft 451 kts 308°
2026-05-06 22:08 47.06315 11.02136 37940 ft 455 kts 308°
2026-05-06 22:09 47.10601 10.95313 37913 ft 453 kts 308°
2026-05-06 22:09 47.14850 10.88522 37926 ft 450 kts 308°
2026-05-06 22:10 47.19077 10.81751 37912 ft 454 kts 308°
2026-05-06 22:10 47.23377 10.74846 37913 ft 455 kts 308°
2026-05-06 22:11 47.27642 10.67988 37916 ft 454 kts 308°
2026-05-06 22:11 47.31907 10.61109 37913 ft 454 kts 308°
2026-05-06 22:12 47.36174 10.54203 37923 ft 457 kts 308°
2026-05-06 22:12 47.40592 10.47456 37927 ft 458 kts 315°
2026-05-06 22:13 47.45586 10.41616 37931 ft 464 kts 318°
2026-05-06 22:13 47.50680 10.35738 37936 ft 464 kts 318°
2026-05-06 22:14 47.55759 10.29868 37939 ft 464 kts 318°
2026-05-06 22:14 47.60872 10.23955 37936 ft 467 kts 318°
2026-05-06 22:15 47.65994 10.18016 37943 ft 467 kts 318°
2026-05-06 22:15 47.71096 10.12087 37943 ft 465 kts 318°
2026-05-06 22:16 47.76187 10.06154 37932 ft 465 kts 318°
2026-05-06 22:16 47.81283 10.00199 37935 ft 467 kts 318°
2026-05-06 22:17 47.86387 9.94221 37936 ft 467 kts 318°
2026-05-06 22:17 47.91481 9.88239 37931 ft 466 kts 318°
2026-05-06 22:18 47.96563 9.82254 37917 ft 465 kts 318°
2026-05-06 22:18 48.01641 9.76258 37911 ft 465 kts 318°
2026-05-06 22:19 48.06678 9.70298 37903 ft 465 kts 318°
2026-05-06 22:19 48.10730 9.65050 37899 ft 461 kts 311°
2026-05-06 22:20 48.15333 9.58349 37898 ft 462 kts 312°
2026-05-06 22:20 48.19958 9.51673 37898 ft 462 kts 312°
2026-05-06 22:21 48.24578 9.44972 37929 ft 462 kts 312°
2026-05-06 22:21 48.29196 9.38243 37913 ft 463 kts 312°
2026-05-06 22:22 48.33810 9.31499 37914 ft 463 kts 312°
2026-05-06 22:22 48.38422 9.24740 37910 ft 463 kts 312°
2026-05-06 22:23 48.43030 9.17969 37909 ft 463 kts 312°
2026-05-06 22:23 48.47635 9.11184 37901 ft 463 kts 312°
2026-05-06 22:24 48.52232 9.04389 37903 ft 463 kts 312°
2026-05-06 22:24 48.56832 8.97578 37901 ft 463 kts 312°
2026-05-06 22:25 48.61417 8.90768 37898 ft 462 kts 312°
2026-05-06 22:25 48.65998 8.83945 37897 ft 462 kts 312°
2026-05-06 22:26 48.70567 8.77122 37903 ft 461 kts 312°
2026-05-06 22:26 48.75127 8.70294 37906 ft 459 kts 312°
2026-05-06 22:27 48.79644 8.63511 37898 ft 457 kts 313°
2026-05-06 22:27 48.84159 8.56713 37898 ft 458 kts 313°
2026-05-06 22:28 48.88673 8.49899 37895 ft 457 kts 313°
2026-05-06 22:28 48.93180 8.43076 37902 ft 457 kts 312°
2026-05-06 22:29 48.97656 8.36283 37904 ft 458 kts 312°
2026-05-06 22:29 49.02161 8.29428 37900 ft 458 kts 312°
2026-05-06 22:30 49.06660 8.22562 37903 ft 458 kts 312°
2026-05-06 22:30 49.11159 8.15678 37905 ft 458 kts 312°
2026-05-06 22:31 49.15660 8.08773 37902 ft 459 kts 312°
2026-05-06 22:31 49.20157 8.01855 37905 ft 459 kts 312°
2026-05-06 22:32 49.24643 7.94934 37902 ft 456 kts 312°
2026-05-06 22:32 49.29110 7.88024 37897 ft 457 kts 312°
2026-05-06 22:33 49.33579 7.81092 37894 ft 457 kts 312°
2026-05-06 22:33 49.38043 7.74149 37895 ft 457 kts 312°
2026-05-06 22:34 49.42506 7.67188 37889 ft 457 kts 312°
2026-05-06 22:34 49.46961 7.60220 37902 ft 457 kts 312°
2026-05-06 22:35 49.51418 7.53229 37900 ft 458 kts 312°
2026-05-06 22:35 49.55860 7.46245 37897 ft 455 kts 312°
2026-05-06 22:36 49.60289 7.39261 37892 ft 456 kts 312°
2026-05-06 22:36 49.64717 7.32257 37895 ft 456 kts 312°
2026-05-06 22:37 49.69138 7.25247 37886 ft 456 kts 312°
2026-05-06 22:37 49.73560 7.18215 37902 ft 456 kts 312°
2026-05-06 22:38 49.77941 7.11230 37908 ft 455 kts 312°
2026-05-06 22:38 49.82371 7.04145 37890 ft 455 kts 312°
2026-05-06 22:39 49.86762 6.97106 37877 ft 454 kts 311°
2026-05-06 22:39 49.91116 6.90103 37883 ft 454 kts 311°
2026-05-06 22:40 49.95489 6.83052 37896 ft 453 kts 311°
2026-05-06 22:40 49.99885 6.75943 37890 ft 453 kts 311°
2026-05-06 22:41 50.06425 6.65331 37895 ft 453 kts 311°
2026-05-06 22:42 50.10774 6.58251 37884 ft 452 kts 311°
2026-05-06 22:42 50.15121 6.51160 37883 ft 452 kts 311°
2026-05-06 22:43 50.19262 6.43805 37889 ft 450 kts 305°
2026-05-06 22:43 50.22804 6.35823 37908 ft 449 kts 302°
2026-05-06 22:44 50.26345 6.27788 37910 ft 449 kts 302°
2026-05-06 22:44 50.29851 6.19790 37911 ft 449 kts 302°
2026-05-06 22:45 50.33368 6.11710 37915 ft 449 kts 302°
2026-05-06 22:45 50.36878 6.03614 37926 ft 449 kts 302°
2026-05-06 22:46 50.40380 5.95509 37933 ft 449 kts 302°
2026-05-06 22:46 50.43876 5.87396 37940 ft 449 kts 302°
2026-05-06 22:47 50.47369 5.79262 37936 ft 449 kts 302°
2026-05-06 22:47 50.50853 5.71126 37947 ft 449 kts 302°
2026-05-06 22:48 50.54332 5.62977 37947 ft 449 kts 302°
2026-05-06 22:48 50.57801 5.54823 37956 ft 448 kts 302°
2026-05-06 22:49 50.61257 5.46677 37821 ft 445 kts 302°
2026-05-06 22:49 50.62967 5.42636 37418 ft 442 kts 302°
2026-05-06 22:49 50.64672 5.38601 36715 ft 443 kts 302°
2026-05-06 22:49 50.66384 5.34540 35887 ft 447 kts 302°
2026-05-06 22:50 50.68111 5.30436 35022 ft 451 kts 303°
2026-05-06 22:50 50.69847 5.26305 34200 ft 454 kts 303°
2026-05-06 22:50 50.71588 5.22158 33339 ft 454 kts 303°
2026-05-06 22:50 50.73335 5.17992 32392 ft 455 kts 303°
2026-05-06 22:51 50.75085 5.13811 31436 ft 457 kts 303°
2026-05-06 22:51 50.76836 5.09622 30802 ft 452 kts 303°
2026-05-06 22:51 50.78539 5.05543 30687 ft 439 kts 303°
2026-05-06 22:51 50.80216 5.01518 30584 ft 443 kts 302°
2026-05-06 22:52 50.81919 4.97424 30477 ft 445 kts 302°
2026-05-06 22:52 50.83614 4.93340 30372 ft 443 kts 302°
2026-05-06 22:52 50.85300 4.89275 30257 ft 442 kts 302°
2026-05-06 22:52 50.86981 4.85214 30155 ft 442 kts 302°
2026-05-06 22:53 50.88663 4.81145 30043 ft 441 kts 302°
2026-05-06 22:53 50.92009 4.73031 29968 ft 440 kts 302°
2026-05-06 22:54 50.95351 4.64902 29966 ft 439 kts 302°
2026-05-06 22:54 50.98684 4.56768 29967 ft 439 kts 302°
2026-05-06 22:55 51.01986 4.48691 29966 ft 440 kts 302°
2026-05-06 22:55 51.05312 4.40535 29989 ft 440 kts 302°
2026-05-06 22:56 51.08629 4.32367 29990 ft 440 kts 302°
2026-05-06 22:56 51.11938 4.24192 29988 ft 440 kts 302°
2026-05-06 22:57 51.15241 4.16003 29989 ft 439 kts 302°
2026-05-06 22:57 51.18538 4.07805 29985 ft 439 kts 302°
2026-05-06 22:58 51.21830 3.99592 29986 ft 439 kts 302°
2026-05-06 22:58 51.25114 3.91374 29982 ft 439 kts 302°
2026-05-06 22:59 51.28397 3.83134 29981 ft 439 kts 301°
2026-05-06 22:59 51.31660 3.74918 29985 ft 437 kts 301°
2026-05-06 23:00 51.34724 3.66529 29987 ft 437 kts 294°
2026-05-06 23:00 51.36748 3.57395 29992 ft 436 kts 284°
2026-05-06 23:01 51.38382 3.48073 29988 ft 436 kts 285°
2026-05-06 23:01 51.40030 3.38737 29994 ft 436 kts 285°
2026-05-06 23:02 51.41657 3.29408 29512 ft 434 kts 285°
2026-05-06 23:02 51.42466 3.24746 28655 ft 436 kts 285°
2026-05-06 23:02 51.43281 3.20028 27560 ft 442 kts 285°
2026-05-06 23:02 51.44101 3.15274 26731 ft 441 kts 285°
2026-05-06 23:03 51.44901 3.10624 26072 ft 437 kts 285°
2026-05-06 23:03 51.45439 3.07464 25620 ft 434 kts 284°
2026-05-06 23:03 51.46443 3.01402 25371 ft 413 kts 284°
2026-05-06 23:03 51.47162 2.97026 25261 ft 400 kts 284°
2026-05-06 23:04 51.47871 2.92703 25152 ft 404 kts 284°
2026-05-06 23:04 51.48588 2.88326 25057 ft 406 kts 284°
2026-05-06 23:04 51.49071 2.85379 25007 ft 402 kts 284°
2026-05-06 23:04 51.49777 2.81072 25004 ft 397 kts 284°
2026-05-06 23:05 51.50477 2.76782 25005 ft 400 kts 284°
2026-05-06 23:05 51.51175 2.72499 25005 ft 403 kts 284°
2026-05-06 23:05 51.51890 2.68101 25007 ft 400 kts 284°
2026-05-06 23:05 51.52592 2.63771 25007 ft 403 kts 284°
2026-05-06 23:06 51.53284 2.59488 25007 ft 401 kts 284°
2026-05-06 23:06 51.53985 2.55147 25006 ft 401 kts 284°
2026-05-06 23:06 51.54695 2.50760 25008 ft 402 kts 285°
2026-05-06 23:06 51.55586 2.46575 25010 ft 399 kts 289°
2026-05-06 23:07 51.56562 2.42347 25012 ft 398 kts 289°
2026-05-06 23:07 51.57519 2.38174 25011 ft 400 kts 289°
2026-05-06 23:07 51.58482 2.33954 25010 ft 402 kts 289°
2026-05-06 23:07 51.59441 2.29735 25015 ft 401 kts 289°
2026-05-06 23:08 51.60384 2.25585 25019 ft 401 kts 289°
2026-05-06 23:08 51.61339 2.21369 25018 ft 402 kts 289°
2026-05-06 23:08 51.62295 2.17143 25017 ft 402 kts 289°
2026-05-06 23:08 51.63570 2.13076 25019 ft 403 kts 304°
2026-05-06 23:09 51.65450 2.09736 25017 ft 406 kts 319°
2026-05-06 23:09 51.67832 2.07259 25021 ft 409 kts 330°
2026-05-06 23:09 51.70317 2.05154 24988 ft 408 kts 330°
2026-05-06 23:09 51.72829 2.03034 24609 ft 408 kts 330°
2026-05-06 23:10 51.75355 2.00895 23860 ft 413 kts 330°
2026-05-06 23:10 51.77954 1.98683 22803 ft 420 kts 330°
2026-05-06 23:10 51.80494 1.96516 22135 ft 416 kts 330°
2026-05-06 23:10 51.83036 1.94345 21518 ft 411 kts 330°
2026-05-06 23:11 51.85551 1.92193 20910 ft 405 kts 330°
2026-05-06 23:11 51.87978 1.89937 20236 ft 401 kts 324°
2026-05-06 23:11 51.90173 1.87199 19609 ft 396 kts 317°
2026-05-06 23:11 51.92099 1.84065 19022 ft 390 kts 310°
2026-05-06 23:12 51.93829 1.80712 18652 ft 380 kts 309°
2026-05-06 23:12 51.95492 1.77499 18540 ft 364 kts 309°
2026-05-06 23:12 51.97115 1.74370 18447 ft 364 kts 309°
2026-05-06 23:12 51.98753 1.71207 18344 ft 367 kts 309°
2026-05-06 23:13 52.00380 1.68056 18229 ft 363 kts 309°
2026-05-06 23:13 52.02005 1.64900 18111 ft 364 kts 309°
2026-05-06 23:13 52.03615 1.61770 18033 ft 359 kts 309°
2026-05-06 23:13 52.05222 1.58639 18031 ft 364 kts 309°
2026-05-06 23:14 52.06847 1.55468 18032 ft 365 kts 309°
2026-05-06 23:14 52.08474 1.52293 18032 ft 364 kts 309°
2026-05-06 23:14 52.10084 1.49147 18035 ft 361 kts 309°
2026-05-06 23:14 52.11698 1.45987 18034 ft 365 kts 309°
2026-05-06 23:15 52.13319 1.42809 18034 ft 365 kts 309°
2026-05-06 23:15 52.14884 1.39558 18036 ft 364 kts 302°
2026-05-06 23:15 52.16030 1.35890 18039 ft 364 kts 290°
2026-05-06 23:15 52.16656 1.31898 18038 ft 365 kts 278°
2026-05-06 23:16 52.16968 1.27792 18043 ft 365 kts 277°
2026-05-06 23:16 52.17288 1.23701 18045 ft 365 kts 277°
2026-05-06 23:16 52.17613 1.19597 18043 ft 365 kts 278°
2026-05-06 23:16 52.17936 1.15503 18047 ft 365 kts 277°
2026-05-06 23:17 52.18258 1.11403 18047 ft 365 kts 277°
2026-05-06 23:17 52.18578 1.07303 18047 ft 365 kts 277°
2026-05-06 23:17 52.18896 1.03201 18044 ft 365 kts 277°
2026-05-06 23:17 52.19213 0.99092 18047 ft 365 kts 277°
2026-05-06 23:18 52.19527 0.94996 18044 ft 365 kts 277°
2026-05-06 23:18 52.19838 0.90921 18043 ft 365 kts 277°
2026-05-06 23:18 52.20149 0.86824 18039 ft 365 kts 277°
2026-05-06 23:18 52.20459 0.82723 18042 ft 365 kts 277°
2026-05-06 23:19 52.20768 0.78625 18037 ft 365 kts 277°
2026-05-06 23:19 52.21075 0.74524 18029 ft 363 kts 277°
2026-05-06 23:19 52.21378 0.70469 17970 ft 356 kts 277°
2026-05-06 23:19 52.21670 0.66520 17865 ft 345 kts 277°
2026-05-06 23:20 52.21951 0.62712 17740 ft 332 kts 277°
2026-05-06 23:20 52.22220 0.59053 17623 ft 319 kts 277°
2026-05-06 23:20 52.22480 0.55501 17271 ft 314 kts 277°
2026-05-06 23:20 52.22739 0.51965 16741 ft 314 kts 277°
2026-05-06 23:21 52.22995 0.48433 16212 ft 312 kts 277°
2026-05-06 23:21 52.23248 0.44940 15699 ft 307 kts 277°
2026-05-06 23:21 52.23494 0.41517 15191 ft 302 kts 277°
2026-05-06 23:21 52.23735 0.38148 14705 ft 298 kts 277°
2026-05-06 23:22 52.23976 0.34784 14217 ft 299 kts 278°
2026-05-06 23:22 52.24214 0.31437 13723 ft 295 kts 278°
2026-05-06 23:22 52.24449 0.28124 13185 ft 294 kts 277°
2026-05-06 23:22 52.24685 0.24792 12666 ft 297 kts 278°
2026-05-06 23:23 52.24921 0.21436 12148 ft 299 kts 278°
2026-05-06 23:23 52.25158 0.18060 11636 ft 300 kts 278°
2026-05-06 23:23 52.25394 0.14666 11131 ft 301 kts 278°
2026-05-06 23:23 52.25630 0.11268 10628 ft 302 kts 278°
2026-05-06 23:24 52.25865 0.07859 10145 ft 302 kts 278°
2026-05-06 23:24 52.26101 0.04444 9630 ft 303 kts 278°
2026-05-06 23:24 52.26334 0.01048 9098 ft 303 kts 278°
2026-05-06 23:24 52.26571 -0.02375 8567 ft 303 kts 277°
2026-05-06 23:25 52.26843 -0.05749 8335 ft 294 kts 282°
2026-05-06 23:25 52.27359 -0.08889 8235 ft 280 kts 286°
2026-05-06 23:25 52.27889 -0.11881 8113 ft 268 kts 286°
2026-05-06 23:25 52.28387 -0.14734 8048 ft 254 kts 285°
2026-05-06 23:26 52.28854 -0.17417 8053 ft 240 kts 285°
2026-05-06 23:26 52.29312 -0.20072 8062 ft 246 kts 285°
2026-05-06 23:26 52.29774 -0.22750 8058 ft 243 kts 285°
2026-05-06 23:26 52.30233 -0.25414 8056 ft 245 kts 285°
2026-05-06 23:27 52.30695 -0.28088 8063 ft 243 kts 285°
2026-05-06 23:27 52.31153 -0.30747 8063 ft 244 kts 285°
2026-05-06 23:27 52.31613 -0.33422 8056 ft 243 kts 285°
2026-05-06 23:27 52.32070 -0.36081 8063 ft 243 kts 285°
2026-05-06 23:28 52.32527 -0.38746 8066 ft 243 kts 285°
2026-05-06 23:28 52.32983 -0.41410 8059 ft 243 kts 285°
2026-05-06 23:28 52.33773 -0.43827 8054 ft 245 kts 313°
2026-05-06 23:28 52.35206 -0.45295 8052 ft 248 kts 344°
2026-05-06 23:29 52.36911 -0.45391 8044 ft 249 kts 14°
2026-05-06 23:29 52.38427 -0.44065 8050 ft 249 kts 45°
2026-05-06 23:29 52.39328 -0.41675 8049 ft 249 kts 76°
2026-05-06 23:29 52.39416 -0.38863 8051 ft 249 kts 98°
2026-05-06 23:30 52.39100 -0.36088 8059 ft 247 kts 104°
2026-05-06 23:30 52.38527 -0.33443 8063 ft 247 kts 119°
2026-05-06 23:30 52.37552 -0.31140 8045 ft 247 kts 133°
2026-05-06 23:30 52.36296 -0.29242 8051 ft 245 kts 143°
2026-05-06 23:31 52.34905 -0.27628 8062 ft 245 kts 148°
2026-05-06 23:31 52.33458 -0.26152 8062 ft 245 kts 150°
2026-05-06 23:31 52.31994 -0.24722 8043 ft 245 kts 150°
2026-05-06 23:31 52.30491 -0.23423 8047 ft 244 kts 160°
2026-05-06 23:32 52.28863 -0.22673 8063 ft 243 kts 172°
2026-05-06 23:32 52.27180 -0.22231 8059 ft 246 kts 171°
2026-05-06 23:32 52.25494 -0.21763 8056 ft 246 kts 171°
2026-05-06 23:32 52.23808 -0.21280 8048 ft 246 kts 170°
2026-05-06 23:33 52.22148 -0.20800 8058 ft 246 kts 170°
2026-05-06 23:33 52.20442 -0.20305 8051 ft 246 kts 170°
2026-05-06 23:33 52.18758 -0.19815 8052 ft 246 kts 170°
2026-05-06 23:33 52.17104 -0.19300 8048 ft 246 kts 169°
2026-05-06 23:34 52.15425 -0.18762 8053 ft 246 kts 169°
2026-05-06 23:34 52.13748 -0.18223 8055 ft 246 kts 169°
2026-05-06 23:34 52.12069 -0.17690 8054 ft 246 kts 170°
2026-05-06 23:34 52.10380 -0.17787 8057 ft 245 kts 199°
2026-05-06 23:35 52.08963 -0.19217 8019 ft 239 kts 227°
2026-05-06 23:35 52.07880 -0.21186 7940 ft 228 kts 229°
2026-05-06 23:35 52.06878 -0.23085 7836 ft 216 kts 229°
2026-05-06 23:35 52.05898 -0.24931 7585 ft 211 kts 229°
2026-05-06 23:36 52.04936 -0.26721 7277 ft 210 kts 227°
2026-05-06 23:36 52.03982 -0.28471 6953 ft 209 kts 227°
2026-05-06 23:36 52.03027 -0.30212 6652 ft 208 kts 227°
2026-05-06 23:36 52.02066 -0.31959 6347 ft 207 kts 226°
2026-05-06 23:37 52.01092 -0.33726 6024 ft 206 kts 226°
2026-05-06 23:37 52.00148 -0.35468 5715 ft 206 kts 231°
2026-05-06 23:37 51.99464 -0.37503 5407 ft 207 kts 250°
2026-05-06 23:37 51.99071 -0.39704 5135 ft 204 kts 253°
2026-05-06 23:38 51.98671 -0.41929 5048 ft 207 kts 252°
2026-05-06 23:38 51.98249 -0.44118 4993 ft 204 kts 247°
2026-05-06 23:38 51.97548 -0.46143 4993 ft 204 kts 231°
2026-05-06 23:38 51.96663 -0.47908 4994 ft 204 kts 230°
2026-05-06 23:39 51.95783 -0.49697 4992 ft 204 kts 230°
2026-05-06 23:39 51.94909 -0.51493 4996 ft 204 kts 231°
2026-05-06 23:39 51.94033 -0.53304 4998 ft 204 kts 231°
2026-05-06 23:39 51.93157 -0.55109 4999 ft 204 kts 231°
2026-05-06 23:40 51.92279 -0.56915 4995 ft 204 kts 231°
2026-05-06 23:40 51.91403 -0.58719 5003 ft 204 kts 231°
2026-05-06 23:40 51.90530 -0.60530 4993 ft 204 kts 234°
2026-05-06 23:40 51.89878 -0.62562 4993 ft 205 kts 251°
2026-05-06 23:41 51.89501 -0.64791 4995 ft 206 kts 254°
2026-05-06 23:41 51.89125 -0.67022 4994 ft 205 kts 253°
2026-05-06 23:41 51.88739 -0.69245 5006 ft 205 kts 253°
2026-05-06 23:41 51.88350 -0.71461 5005 ft 206 kts 253°
2026-05-06 23:42 51.87919 -0.73665 4985 ft 204 kts 240°
2026-05-06 23:42 51.86954 -0.75288 5007 ft 203 kts 205°
2026-05-06 23:42 51.85594 -0.75667 5011 ft 201 kts 168°
2026-05-06 23:42 51.84255 -0.75054 4970 ft 198 kts 160°
2026-05-06 23:43 51.82960 -0.74324 4699 ft 198 kts 160°
2026-05-06 23:43 51.81819 -0.73130 4333 ft 198 kts 126°
2026-05-06 23:43 51.81353 -0.71076 3986 ft 197 kts 89°
2026-05-06 23:43 51.81623 -0.68985 3917 ft 182 kts 72°
2026-05-06 23:44 51.82025 -0.67145 3791 ft 169 kts 70°
2026-05-06 23:44 51.82409 -0.65419 3690 ft 157 kts 71°
2026-05-06 23:44 51.82753 -0.63802 3543 ft 149 kts 72°
2026-05-06 23:44 51.83061 -0.62252 3489 ft 149 kts 73°
2026-05-06 23:45 51.83342 -0.60687 3349 ft 148 kts 75°
2026-05-06 23:45 51.83618 -0.59094 3187 ft 148 kts 75°
2026-05-06 23:45 51.83897 -0.57486 3004 ft 147 kts 75°
2026-05-06 23:45 51.84167 -0.55923 2819 ft 143 kts 75°
2026-05-06 23:46 51.84431 -0.54394 2618 ft 145 kts 75°
2026-05-06 23:46 51.84706 -0.52806 2432 ft 146 kts 75°
2026-05-06 23:46 51.84885 -0.51769 2294 ft 143 kts 75°
2026-05-06 23:46 51.85226 -0.49797 2050 ft 130 kts 74°
2026-05-06 23:47 51.85465 -0.48415 1871 ft 129 kts 75°
2026-05-06 23:47 51.85706 -0.47020 1693 ft 127 kts 74°
2026-05-06 23:47 51.85907 -0.45853 1538 ft 129 kts 74°
2026-05-06 23:48 51.86157 -0.44407 1343 ft 135 kts 73°
2026-05-06 23:48 51.86402 -0.42988 1146 ft 130 kts 72°
2026-05-06 23:49 51.86648 -0.41568 958 ft 132 kts 71°
2026-05-06 23:49 51.86897 -0.40120 789 ft 135 kts 72°
2026-05-06 23:49 51.87147 -0.38692 617 ft 133 kts 72°
2026-05-06 23:49 51.87386 -0.37334 535 ft 98 kts 74°
2026-05-06 23:50 51.87466 -0.36905 535 ft 2 kts 38°
2026-05-06 23:50 51.87508 -0.36912 534 ft 7 kts 332°
2026-05-06 23:50 51.87559 -0.36956 534 ft 10 kts 332°
2026-05-06 23:51 51.87606 -0.37035 534 ft 10 kts 278°
2026-05-06 23:51 51.87597 -0.37158 534 ft 12 kts 254°
2026-05-06 23:51 51.87616 -0.37210 535 ft 4 kts 340°
2026-05-06 23:51 51.87650 -0.37229 535 ft 6 kts 343°
2026-05-06 23:52 51.87660 -0.37233 535 ft 0 kts 344°